����27�N�x�@��C��������Ԃɂ�鑪�茋��,,,,,,,,,,,,,,
,,,,,,,,,,,,,,
�P�@����n�_,,,,,,,,,,,,,,
���C�s�V��i���C�s�V��1-1�j,,,,,,,,,,,,,,
,,,,,,,,,,,,,,
�Q�@���Ԓl�i�m��l�j������27�N9��17���`����27�N10��9��,,,,,,,,,,,,,,
,,,,,,,,,,,,,,
,�N,��,��,��,SO2,SPM,Ox,CO,NO,NO2,���x,���x,����,����
,,,,,ppm,mg/m3,ppm,ppm,ppm,ppm,��,%,�P�U����,m/s
H01,2015,9,17,1,0.001,0.047,0.005,0.4,0.006,0.032,20.1,89.4,CALM,0
H01,2015,9,17,2,0.001,0.05,0.007,0.4,0.002,0.025,19.8,90.1,CALM,0
H01,2015,9,17,3,0.001,0.067,0.006,0.5,0.002,0.025,20.2,91.4,CALM,0
H01,2015,9,17,4,0.001,0.053,0.008,0.4,0.008,0.026,20.1,91.8,CALM,0.1
H01,2015,9,17,5,0.001,0.047,0.01,0.4,0.011,0.025,19.8,92,NNW,0.3
H01,2015,9,17,6,0.001,0.031,0.006,0.5,0.008,0.029,19.8,92.2,NE,1
H01,2015,9,17,7,0.001,0.054,0.004,0.5,0.024,0.031,19.8,92.4,NNE,2.1
H01,2015,9,17,8,0.001,0.047,0.006,0.6,0.026,0.031,20.1,91.8,NNE,1.8
H01,2015,9,17,9,0.001,0.057,0.005,0.6,0.038,0.038,20.3,91,NNE,1.2
H01,2015,9,17,10,0.001,0.037,0.007,0.5,0.021,0.032,20,90.8,NNE,1.7
H01,2015,9,17,11,0.001,0.039,0.005,0.5,0.033,0.035,20.5,91.7,NNE,0.9
H01,2015,9,17,12,0.001,0.048,0.004,0.6,0.05,0.041,20.8,90.6,WNW,1
H01,2015,9,17,13,0.001,0.038,0.007,0.5,0.032,0.034,20.9,88.4,WNW,1.5
H01,2015,9,17,14,0.001,0.03,0.011,0.5,0.041,0.03,20.7,89,WNW,1.9
H01,2015,9,17,15,0.001,0.028,0.015,0.4,0.031,0.032,20.5,90.9,N,0.8
H01,2015,9,17,16,0.001,0.023,0.011,0.4,0.014,0.033,20.5,91.5,NNE,1.6
H01,2015,9,17,17,0,0.021,0.012,0.5,0.018,0.032,20.6,91.7,WNW,1.1
H01,2015,9,17,18,0,0.026,0.012,0.5,0.026,0.028,20.6,91.9,WNW,2
H01,2015,9,17,19,0,0.017,0.013,0.4,0.01,0.024,20.6,92.1,NNW,0.4
H01,2015,9,17,20,0,0.024,0.012,0.5,0.007,0.024,20.6,92.1,N,0.5
H01,2015,9,17,21,0,0.011,0.015,0.4,0.006,0.018,20.4,92.3,W,0.8
H01,2015,9,17,22,0,0.011,0.02,0.4,0.002,0.015,20.4,92.7,WNW,1.1
H01,2015,9,17,23,0,0.02,0.023,0.4,0.001,0.015,20.3,92.7,WNW,1.7
H01,2015,9,17,24,0,0.013,0.025,0.3,0.002,0.012,20.3,92.8,W,0.6
H01,2015,9,18,1,0.001,0.015,0.023,0.2,0.001,0.014,20.2,92.7,NNE,1.3
H01,2015,9,18,2,0,0.015,0.02,0.3,0,0.015,20.2,92.9,NE,1.5
H01,2015,9,18,3,0,0.008,0.018,0.3,0.001,0.017,20.4,92.3,NE,1.1
H01,2015,9,18,4,0.001,0.017,0.012,0.3,0.008,0.025,20.3,90.1,WNW,1.9
H01,2015,9,18,5,0.001,0.024,0.013,0.3,0.006,0.022,20,89.3,WNW,1.3
H01,2015,9,18,6,0.001,0.024,0.005,0.3,0.023,0.031,19.8,90.3,WNW,0.3
H01,2015,9,18,7,0.001,0.045,0.002,0.4,0.056,0.039,20.3,91.4,CALM,0.2
H01,2015,9,18,8,0.002,0.028,0.01,0.4,0.043,0.031,21.4,78.4,NW,0.6
H01,2015,9,18,9,0.002,0.033,0.015,0.4,0.022,0.039,22.7,71.9,NNE,1
H01,2015,9,18,10,0.001,0.042,0.013,0.3,0.043,0.046,23.1,69.3,NNE,1.1
H01,2015,9,18,11,0.001,0.022,0.021,0.3,0.043,0.032,25.4,54.7,NW,1
H01,2015,9,18,12,0.001,0.026,0.035,0.2,0.019,0.031,25.8,55.4,NNW,1
H01,2015,9,18,13,0.002,0.029,0.043,0.2,0.015,0.029,27.9,53.5,W,2.2
H01,2015,9,18,14,0.005,0.032,0.023,0.3,0.051,0.047,28.5,49.6,WSW,2.4
H01,2015,9,18,15,0.001,0.029,0.029,0.2,0.036,0.028,28.7,46.4,W,2.4
H01,2015,9,18,16,0.001,0.019,0.03,0.1,0.031,0.029,27.8,48.2,NW,1.6
H01,2015,9,18,17,0,0.024,0.034,0.1,0.015,0.018,27,55.1,WNW,1.9
H01,2015,9,18,18,0,0.016,0.035,0.2,0.008,0.015,24.8,56.4,WNW,3.4
H01,2015,9,18,19,0,0.016,0.037,0.2,0.007,0.013,23.9,61.1,WNW,2.9
H01,2015,9,18,20,0,0.016,0.034,0.2,0.005,0.012,23.3,63.1,WNW,2.6
H01,2015,9,18,21,0,0.019,0.035,0.1,0.001,0.009,22.9,65.7,WNW,3.5
H01,2015,9,18,22,0,0.014,0.034,0.2,0.001,0.009,22.5,68.6,WNW,2.5
H01,2015,9,18,23,0,0.022,0.031,0.2,0.002,0.01,22.1,69.8,WNW,2
H01,2015,9,18,24,0,0.017,0.032,0.2,0.002,0.008,22.1,67.2,WNW,1.9
H01,2015,9,19,1,***,0.014,0.035,***,***,***,22,66.7,WNW,2
H01,2015,9,19,2,0.001,0.023,0.035,0.2,***,***,21.6,69.5,WNW,2.4
H01,2015,9,19,3,0,0.022,0.034,0.2,0.001,0.006,21.4,71.5,WNW,0.8
H01,2015,9,19,4,0.001,0.022,0.028,0.2,0.001,0.012,20.9,74.6,NNE,0.9
H01,2015,9,19,5,0.001,0.014,0.027,0.2,0.002,0.015,20.8,72.5,NW,0.7
H01,2015,9,19,6,0.001,0.028,0.018,0.3,0.004,0.023,20.2,75.5,CALM,0
H01,2015,9,19,7,0.001,0.017,0.017,0.3,0.022,0.032,22,62.8,WNW,2
H01,2015,9,19,8,0.001,0.021,0.029,0.3,0.021,0.017,24.3,49.8,WNW,2.4
H01,2015,9,19,9,0,0.027,0.035,0.2,0.013,0.012,25.1,46.4,WNW,3.6
H01,2015,9,19,10,0,0.016,0.035,0.2,0.012,0.018,26.3,44.8,NNW,2.3
H01,2015,9,19,11,0.001,0.014,0.037,0.2,0.011,0.012,27,43.9,WNW,3.1
H01,2015,9,19,12,0,0.027,0.037,0.2,0.008,0.013,27.8,43.1,WNW,3.2
H01,2015,9,19,13,0,0.02,0.039,0.1,0.006,0.007,28.5,42.1,WNW,3.4
H01,2015,9,19,14,0,0.028,0.039,0.2,0.007,0.01,28,43.4,WNW,3.2
H01,2015,9,19,15,0,0.03,0.036,0.2,0.007,0.012,27.3,44.1,WNW,5.2
H01,2015,9,19,16,0,0.026,0.037,0.2,0.005,0.011,26.4,45.7,WNW,4.5
H01,2015,9,19,17,0,0.016,0.036,0.2,0.004,0.008,25.5,49.4,WNW,4.1
H01,2015,9,19,18,0,0.02,0.035,0.2,0.002,0.006,24.4,53.7,WNW,3.9
H01,2015,9,19,19,0,0.021,0.034,0.2,0.003,0.005,23.7,54.7,WNW,3.1
H01,2015,9,19,20,0,0.023,0.034,0.2,0.001,0.005,23.2,55.8,WNW,2.7
H01,2015,9,19,21,0,0.027,0.034,0.2,0.001,0.005,22.7,57.1,WNW,1.9
H01,2015,9,19,22,0.001,0.019,0.03,0.3,0.001,0.008,22,60.4,NNE,1
H01,2015,9,19,23,0.001,0.026,0.031,0.2,0.001,0.007,21.8,59.7,WNW,1.3
H01,2015,9,19,24,0.001,0.018,0.032,0.2,0.001,0.005,21.5,59.7,WNW,1
H01,2015,9,20,1,0.001,0.022,0.03,0.2,0,0.007,21.5,60.6,WNW,1.6
H01,2015,9,20,2,0.001,0.021,0.028,0.2,0.001,0.008,21.4,61.3,N,0.8
H01,2015,9,20,3,0.001,0.022,0.028,0.2,0,0.006,20.9,63.9,W,0.7
H01,2015,9,20,4,0.001,0.02,0.026,0.2,0,0.008,20.8,63.8,NNE,1.1
H01,2015,9,20,5,0.001,0.02,0.026,0.2,0,0.007,21.1,63.5,N,1
H01,2015,9,20,6,0.001,0.019,0.023,0.3,0.001,0.009,21.3,63.3,WNW,0.9
H01,2015,9,20,7,0.001,0.024,0.024,0.3,0.002,0.01,21.6,61.2,NNE,1.7
H01,2015,9,20,8,0.001,0.017,0.025,0.3,0.004,0.01,23.2,53.5,NNW,0.7
H01,2015,9,20,9,0.001,0.032,0.029,0.2,0.003,0.006,25,48.2,NNW,1.6
H01,2015,9,20,10,0.001,0.021,0.033,0.2,0.003,0.005,25.8,45,NNW,1.9
H01,2015,9,20,11,0,0.028,0.037,0.2,0.002,0.005,26.4,43.5,WNW,2
H01,2015,9,20,12,0.001,0.02,0.043,0.2,0.002,0.004,28.2,43.4,W,1.8
H01,2015,9,20,13,0.001,0.021,0.043,0.2,0.003,0.005,28.5,42.6,W,2.1
H01,2015,9,20,14,0.002,0.033,0.04,0.3,0.005,0.012,28.8,44.3,WSW,2.6
H01,2015,9,20,15,0.004,0.033,0.037,0.4,0.011,0.027,29,44.4,WSW,2.8
H01,2015,9,20,16,0.004,0.029,0.034,0.4,0.012,0.026,28.6,44.2,W,2.4
H01,2015,9,20,17,0.001,0.023,0.036,0.3,0.003,0.01,27.9,47.3,W,1.6
H01,2015,9,20,18,0.002,0.018,0.031,0.3,0.004,0.011,25.8,53.2,N,1.1
H01,2015,9,20,19,0.001,0.028,0.03,0.3,0.001,0.009,25.2,57.4,W,1.2
H01,2015,9,20,20,0.003,0.028,0.022,0.3,0.003,0.018,24.4,59.7,WSW,2.7
H01,2015,9,20,21,0.002,0.026,0.025,0.3,0.003,0.012,24,60.7,W,1.2
H01,2015,9,20,22,0.001,0.036,0.025,0.2,0.001,0.01,24.2,63.5,ESE,0.5
H01,2015,9,20,23,0.002,0.022,0.018,0.3,0,0.014,22.9,68.7,E,0.6
H01,2015,9,20,24,0.002,0.032,0.016,0.3,0,0.013,22.2,70.8,ENE,0.6
H01,2015,9,21,1,0.001,0.024,0.016,0.3,0.003,0.013,22.4,72.5,W,0.8
H01,2015,9,21,2,0.001,0.025,0.017,0.3,0.001,0.013,21.6,75.2,CALM,0.2
H01,2015,9,21,3,0.001,0.027,0.011,0.3,0.002,0.017,21.9,73.3,NW,0.5
H01,2015,9,21,4,0.001,0.023,0.008,0.3,0.004,0.018,21.8,72,WNW,0.3
H01,2015,9,21,5,0.001,0.017,0.007,0.3,0.007,0.018,21.6,71.9,NE,0.8
H01,2015,9,21,6,0.001,0.019,0.003,0.3,0.012,0.022,21.2,72.8,WNW,0.7
H01,2015,9,21,7,0.001,0.033,0.002,0.4,0.03,0.024,22,69,NNE,0.6
H01,2015,9,21,8,0.001,0.036,0.006,0.4,0.032,0.021,22.9,64.2,NNW,0.8
H01,2015,9,21,9,0.001,0.017,0.013,0.3,0.017,0.014,24.4,53.9,NNE,0.9
H01,2015,9,21,10,0.001,0.046,0.017,0.3,0.019,0.019,26,49.5,NNE,1.2
H01,2015,9,21,11,0.003,0.034,0.022,0.4,0.025,0.027,27.6,48.4,W,1.7
H01,2015,9,21,12,0.018,0.05,0.017,1.5,0.042,0.043,28.2,49.1,W,1.9
H01,2015,9,21,13,0.015,0.043,0.025,1.3,0.032,0.036,28.2,46.7,WSW,1.6
H01,2015,9,21,14,0.007,0.033,0.02,0.6,0.038,0.042,27.9,47.3,W,1.8
H01,2015,9,21,15,0.009,0.052,0.014,0.6,0.042,0.051,27.2,55.1,WSW,2.9
H01,2015,9,21,16,0.005,0.04,0.026,0.5,0.019,0.038,27.3,55.9,SW,1.4
H01,2015,9,21,17,0.008,0.04,0.02,0.6,0.025,0.048,26.1,59.3,S,1.6
H01,2015,9,21,18,0.002,0.045,0.042,0.3,0.002,0.017,24.8,67.2,S,1.6
H01,2015,9,21,19,0.002,0.046,0.04,0.3,0.001,0.016,24.6,69.3,SSE,1.2
H01,2015,9,21,20,0.002,0.035,0.039,0.3,0,0.014,24.2,72.8,SSE,1
H01,2015,9,21,21,0.002,0.043,0.034,0.3,0.001,0.017,23.5,74.7,SE,0.7
H01,2015,9,21,22,0.002,0.047,0.03,0.3,0,0.018,23.1,77.1,E,0.4
H01,2015,9,21,23,0.001,0.034,0.023,0.4,0.001,0.021,23.3,79,E,0.3
H01,2015,9,21,24,0.001,0.034,0.027,0.3,0,0.014,23.3,70.9,ENE,1.1
H01,2015,9,22,1,0.001,0.02,0.019,0.2,0.001,0.014,22.5,64.2,NE,1.5
H01,2015,9,22,2,0.001,0.026,0.014,0.3,0.002,0.016,21.6,71,W,0.4
H01,2015,9,22,3,0.001,0.027,0.015,0.3,0.003,0.016,21.4,71,WSW,0.5
H01,2015,9,22,4,0.001,0.038,0.006,0.3,0.006,0.02,20.8,76,W,0.5
H01,2015,9,22,5,0.001,0.039,0.001,0.4,0.012,0.023,20.4,78.7,N,0.8
H01,2015,9,22,6,0.001,0.038,0.001,0.4,0.023,0.021,20.5,81,NE,1.7
H01,2015,9,22,7,0.002,0.031,0.004,0.4,0.022,0.02,21.6,75.2,NNW,0.4
H01,2015,9,22,8,0.002,0.049,0.01,0.4,0.014,0.018,23.7,63.6,NNE,1.6
H01,2015,9,22,9,0.002,0.049,0.016,0.4,0.015,0.02,25.5,57.9,NNE,1
H01,2015,9,22,10,0.002,0.053,0.024,0.4,0.017,0.021,26.1,53.3,WNW,1.1
H01,2015,9,22,11,0.002,0.045,0.031,0.4,0.022,0.026,27.6,48.5,WNW,1.8
H01,2015,9,22,12,0.001,0.038,0.043,0.3,0.012,0.022,28.2,47.5,NW,1.2
H01,2015,9,22,13,0.003,0.053,0.049,0.3,0.01,0.027,28.5,49.3,WSW,1.9
H01,2015,9,22,14,0.004,0.056,0.036,0.4,0.026,0.044,29,47.1,WSW,2.6
H01,2015,9,22,15,0.013,0.07,0.037,1,0.023,0.056,28.8,49.9,SW,1.8
H01,2015,9,22,16,0.005,0.048,0.072,0.4,0.003,0.023,27.6,53.4,S,2.3
H01,2015,9,22,17,0.007,0.055,0.065,0.4,0.001,0.022,26.4,57.4,SSE,2.4
H01,2015,9,22,18,0.003,0.053,0.051,0.3,0,0.016,25.1,64.1,SSE,2.2
H01,2015,9,22,19,0.002,0.051,0.056,0.3,0,0.01,24.6,71,SSE,2.2
H01,2015,9,22,20,0.002,0.056,0.054,0.3,0,0.011,24.2,75.3,SSE,1.6
H01,2015,9,22,21,0.002,0.056,0.05,0.2,0,0.009,24.2,74,S,1.1
H01,2015,9,22,22,0.002,0.039,0.047,0.2,0,0.009,24.2,73.6,SSE,1.7
H01,2015,9,22,23,0.001,0.043,0.051,0.3,0,0.009,23.6,75.7,SE,1.2
H01,2015,9,22,24,0.001,0.048,0.046,0.3,0,0.013,22.9,75.9,SSE,0.5
H01,2015,9,23,1,0.001,0.033,0.04,0.3,0,0.014,23,78.6,ENE,0.5
H01,2015,9,23,2,0.001,0.038,0.035,0.3,0,0.011,22.9,79.2,E,0.4
H01,2015,9,23,3,0.001,0.047,0.033,0.4,0,0.015,22.9,77.8,ESE,0.7
H01,2015,9,23,4,0.001,0.04,0.039,0.4,0,0.012,22.5,77.9,ESE,1
H01,2015,9,23,5,0.001,0.041,0.03,0.4,0,0.016,21.8,80,ENE,1
H01,2015,9,23,6,0.001,0.037,0.022,0.4,0.001,0.02,22,79.5,ENE,0.5
H01,2015,9,23,7,0.001,0.026,0.019,0.4,0.002,0.021,22.7,72.4,E,0.9
H01,2015,9,23,8,0.001,0.023,0.028,0.3,0.004,0.014,23.7,62.4,ESE,0.9
H01,2015,9,23,9,0.001,0.024,0.032,0.3,0.003,0.015,25.3,54.7,SSE,2.1
H01,2015,9,23,10,0.001,0.024,0.041,0.3,0.008,0.013,26.7,46.6,SSE,1.4
H01,2015,9,23,11,0.001,0.036,0.05,0.3,0.005,0.015,27,44.3,SE,1.4
H01,2015,9,23,12,0.001,0.034,0.056,0.3,0.001,0.009,26.9,45.1,S,2.1
H01,2015,9,23,13,0.001,0.03,0.059,0.3,0.002,0.01,27.3,43.3,S,2.4
H01,2015,9,23,14,0.001,0.036,0.053,0.3,0.004,0.014,27.8,45.1,S,2.8
H01,2015,9,23,15,0.002,0.042,0.054,0.3,0.002,0.01,27.5,46.5,S,2.6
H01,2015,9,23,16,0.001,0.028,0.054,0.2,0.001,0.008,26.9,46.3,S,3.2
H01,2015,9,23,17,0.001,0.035,0.05,0.2,0.001,0.007,25.8,51.9,SSE,2.4
H01,2015,9,23,18,0.001,0.022,0.043,0.3,0.005,0.011,24.5,58.9,S,2.4
H01,2015,9,23,19,0.001,0.04,0.045,0.3,0,0.008,24.2,61.5,S,1.4
H01,2015,9,23,20,0.001,0.034,0.045,0.3,0,0.009,23.8,64.5,SE,2.1
H01,2015,9,23,21,0.001,0.018,0.038,0.3,0.001,0.014,23,66.8,SE,1
H01,2015,9,23,22,0.001,0.023,0.034,0.3,0,0.017,22.9,67.3,ESE,1
H01,2015,9,23,23,0.001,0.028,0.034,0.3,0,0.014,23.1,61.5,ESE,2.3
H01,2015,9,23,24,0,0.018,0.038,0.3,0,0.01,22.5,63.1,E,0.9
H01,2015,9,24,1,0.001,0.023,0.032,0.4,0,0.012,22.1,67,NE,0.8
H01,2015,9,24,2,0,0.027,0.027,0.4,0,0.015,21.6,68,ENE,0.7
H01,2015,9,24,3,0,0.029,0.031,0.3,0,0.01,22,64.2,ENE,1.1
H01,2015,9,24,4,0,0.014,0.033,0.3,0,0.008,21.6,65,ENE,0.8
H01,2015,9,24,5,0,0.022,0.029,0.3,0.001,0.012,21.5,65.4,ENE,0.9
H01,2015,9,24,6,0.001,0.021,0.023,0.4,0.001,0.018,21.5,64.8,ENE,0.9
H01,2015,9,24,7,0.001,0.029,0.022,0.4,0.001,0.018,22,63.1,ENE,0.9
H01,2015,9,24,8,0.001,0.036,0.022,0.5,0.004,0.02,22.4,59.3,E,0.3
H01,2015,9,24,9,0.001,0.039,0.021,0.5,0.004,0.024,23,57.8,ENE,0.4
H01,2015,9,24,10,0.001,0.037,0.029,0.4,0.002,0.019,23.6,54.7,E,0.6
H01,2015,9,24,11,0.001,0.036,0.027,0.4,0.003,0.023,23.1,58.6,ENE,1
H01,2015,9,24,12,0.001,0.046,0.03,0.4,0.003,0.019,22.7,65.7,ENE,1
H01,2015,9,24,13,0.001,0.036,0.032,0.4,0.003,0.019,22.6,66.6,ENE,0.8
H01,2015,9,24,14,0.001,0.046,0.031,0.4,0.003,0.018,23,68.1,ENE,1.6
H01,2015,9,24,15,0,0.037,0.027,0.4,0.007,0.021,22.3,71.3,ESE,1.7
H01,2015,9,24,16,0,0.028,0.028,0.3,0.007,0.019,22,71,ESE,1.4
H01,2015,9,24,17,0,0.015,0.026,0.4,0.002,0.018,21.7,72.5,E,1
H01,2015,9,24,18,0,0.02,0.023,0.4,0.001,0.021,21.6,73.3,ESE,1
H01,2015,9,24,19,0,0.037,0.02,0.4,0.001,0.022,21.8,73.9,NE,0.9
H01,2015,9,24,20,0,0.028,0.018,0.5,0.001,0.021,21.9,75.3,ENE,0.9
H01,2015,9,24,21,0.001,0.044,0.012,0.6,0.002,0.027,21.8,78.2,NE,2.3
H01,2015,9,24,22,0.001,0.053,0.011,0.6,0.003,0.028,21.5,78.7,NE,1.1
H01,2015,9,24,23,0.001,0.043,0.013,0.5,0.002,0.021,21.6,77.9,NNE,2.1
H01,2015,9,24,24,0.001,0.036,0.006,0.4,0.004,0.022,21.5,79.8,NW,0.7
H01,2015,9,25,1,0.002,0.036,0.005,0.3,0.006,0.02,21.3,79,W,0.5
H01,2015,9,25,2,0.002,0.036,0.005,0.3,0.003,0.016,20.9,78.2,NNW,0.8
H01,2015,9,25,3,0.002,0.033,0.006,0.3,0.004,0.016,20.4,78.6,WNW,2.2
H01,2015,9,25,4,0.001,0.032,0.012,0.2,0.003,0.013,19.1,88.6,NNE,2.2
H01,2015,9,25,5,0.001,0.027,0.012,0.2,0.005,0.016,18.8,90.3,NNE,3.5
H01,2015,9,25,6,0.001,0.023,0.01,0.2,0.007,0.018,18.9,90.9,NNE,2.8
H01,2015,9,25,7,0.001,0.031,0.005,0.2,0.018,0.025,19.4,91,N,0.9
H01,2015,9,25,8,0.001,0.029,0.006,0.4,0.04,0.033,19.1,90.7,NNW,0.7
H01,2015,9,25,9,0.001,0.024,0.007,0.4,0.041,0.03,19.2,91.2,NNE,1.3
H01,2015,9,25,10,0.001,0.025,0.006,0.4,0.038,0.036,20.1,91.3,NNE,1
H01,2015,9,25,11,0.001,0.018,0.005,0.4,0.033,0.038,20.3,89.9,NNE,1.8
H01,2015,9,25,12,0.001,0.027,0.006,0.4,0.046,0.034,20.9,89.3,WNW,1.6
H01,2015,9,25,13,0.001,0.03,0.008,0.3,0.031,0.031,21.6,86.3,NNE,0.8
H01,2015,9,25,14,0.001,0.018,0.014,0.2,0.018,0.024,22.1,81.4,NNE,2.1
H01,2015,9,25,15,0.001,0.029,0.009,0.3,0.036,0.031,22,84.7,N,0.6
H01,2015,9,25,16,0.001,0.029,0.007,0.3,0.054,0.038,22,86.4,WNW,1
H01,2015,9,25,17,0.001,0.025,0.008,0.3,0.035,0.037,22.2,85.4,WNW,1.1
H01,2015,9,25,18,0.001,0.026,0.003,0.5,0.044,0.042,21.9,87.7,CALM,0.2
H01,2015,9,25,19,0.001,0.026,0.004,0.5,0.034,0.036,21.7,89.7,W,1
H01,2015,9,25,20,0.001,0.037,0.003,0.4,0.021,0.034,21.5,90.9,WNW,0.5
H01,2015,9,25,21,0.001,0.032,0.004,0.4,0.011,0.028,21.6,91.4,WNW,0.3
H01,2015,9,25,22,0.001,0.033,0.007,0.3,0.005,0.025,21.6,91.1,W,0.5
H01,2015,9,25,23,0.001,0.034,0.009,0.3,0.005,0.024,21.6,90.8,CALM,0.2
H01,2015,9,25,24,0.001,0.035,0.003,0.4,0.009,0.028,21.5,91.3,S,0.3
H01,2015,9,26,1,***,0.026,0.002,***,***,***,21.3,91.8,E,0.9
H01,2015,9,26,2,0.002,0.021,0.003,0.4,***,***,21.2,92,WNW,0.9
H01,2015,9,26,3,0.004,0.049,0.005,0.3,0.007,0.03,21.3,92.4,WNW,0.4
H01,2015,9,26,4,0.002,0.032,0.004,0.3,0.008,0.029,21.3,92.5,NE,0.8
H01,2015,9,26,5,0.001,0.037,0.005,0.3,0.004,0.026,21.2,92.5,CALM,0.1
H01,2015,9,26,6,0.001,0.037,0.003,0.3,0.003,0.026,20.7,92.3,CALM,0.2
H01,2015,9,26,7,0.001,0.028,0.003,0.4,0.026,0.027,21.4,93.2,SSE,0.5
H01,2015,9,26,8,0.001,0.033,0.004,0.4,0.027,0.029,22,92.6,NNW,0.7
H01,2015,9,26,9,0.001,0.037,0.008,0.4,0.031,0.02,23.4,80,NW,0.7
H01,2015,9,26,10,0.002,0.033,0.011,0.3,0.03,0.024,24.3,69,NW,0.8
H01,2015,9,26,11,0.002,0.026,0.019,0.3,0.02,0.025,25.8,60.6,WSW,1.3
H01,2015,9,26,12,0.001,0.018,0.027,0.3,0.017,0.022,26.4,57.9,WNW,1.3
H01,2015,9,26,13,0.001,0.022,0.04,0.2,0.005,0.018,26.4,55.4,SW,0.6
H01,2015,9,26,14,0.001,0.031,0.052,0.2,0.001,0.01,26.9,57.7,S,1
H01,2015,9,26,15,0.008,0.025,0.028,0.8,0.019,0.037,27,58.2,WSW,2.3
H01,2015,9,26,16,0.003,0.037,0.033,0.4,0.011,0.031,25.8,65.8,SSE,1.7
H01,2015,9,26,17,0.003,0.037,0.039,0.4,0.001,0.019,25.3,67.7,SSE,1.8
H01,2015,9,26,18,0.002,0.032,0.041,0.3,0,0.017,24.4,72.3,SSE,0.9
H01,2015,9,26,19,0.002,0.025,0.034,0.2,0,0.018,24.3,73.8,SE,1.3
H01,2015,9,26,20,0.001,0.028,0.029,0.3,0.001,0.02,23.7,78.2,S,1
H01,2015,9,26,21,0.001,0.038,0.028,0.3,0.001,0.015,23.6,80.6,SE,1
H01,2015,9,26,22,0.001,0.033,0.028,0.2,0,0.013,23.7,82.1,ESE,1.4
H01,2015,9,26,23,0.001,0.027,0.023,0.3,0,0.013,23.6,82.9,SE,0.9
H01,2015,9,26,24,0,0.039,0.021,0.3,0,0.012,23.3,84,E,0.5
H01,2015,9,27,1,0,0.031,0.019,0.3,0,0.01,23.1,83.8,SE,0.4
H01,2015,9,27,2,0,0.013,0.018,0.3,0.001,0.013,23.1,84.7,WNW,0.5
H01,2015,9,27,3,0,0.033,0.02,0.3,0,0.01,22.5,86.6,S,0.7
H01,2015,9,27,4,0,0.026,0.015,0.4,0.001,0.012,22.5,89,CALM,0
H01,2015,9,27,5,0,0.049,0.006,0.5,0.004,0.021,22.5,90.8,CALM,0.2
H01,2015,9,27,6,0.001,0.035,0.003,0.5,0.005,0.022,22.3,91,WNW,0.9
H01,2015,9,27,7,0.001,0.041,0.003,0.5,0.007,0.018,22.1,90.3,N,0.3
H01,2015,9,27,8,0.001,0.038,0.01,0.4,0.006,0.016,22.9,83.2,WNW,0.9
H01,2015,9,27,9,0.001,0.045,0.013,0.5,0.007,0.015,23.8,78.5,NW,0.4
H01,2015,9,27,10,0.002,0.045,0.016,0.4,0.007,0.015,24.7,71.5,W,0.8
H01,2015,9,27,11,0.002,0.028,0.023,0.5,0.007,0.014,25.4,65.4,WSW,1
H01,2015,9,27,12,0.002,0.028,0.032,0.4,0.003,0.009,26.9,61,W,1.3
H01,2015,9,27,13,0.001,0.029,0.037,0.4,0.004,0.011,27.6,57.2,WNW,1.2
H01,2015,9,27,14,0.001,0.043,0.038,0.5,0.004,0.012,28.6,54.3,WSW,1.6
H01,2015,9,27,15,0.003,0.042,0.038,0.4,0.004,0.013,29.7,52.8,WSW,2.2
H01,2015,9,27,16,0.004,0.028,0.036,0.6,0.007,0.022,28.5,53.4,WSW,2.7
H01,2015,9,27,17,0.006,0.046,0.029,0.6,0.008,0.029,27.6,54.1,WSW,3.3
H01,2015,9,27,18,0.003,0.031,0.029,0.5,0.003,0.013,25.5,59,W,1.8
H01,2015,9,27,19,0.001,0.037,0.032,0.3,0.002,0.008,24.5,64.8,W,1.3
H01,2015,9,27,20,0.001,0.031,0.023,0.4,0.002,0.015,23.5,71,CALM,0.1
H01,2015,9,27,21,0.001,0.025,0.022,0.3,0.001,0.013,22.9,73.7,ENE,0.3
H01,2015,9,27,22,0.001,0.028,0.024,0.5,0,0.013,23.1,68.2,NNE,0.9
H01,2015,9,27,23,0.001,0.019,0.023,0.3,0.001,0.016,22.3,71.1,CALM,0.2
H01,2015,9,27,24,0.001,0.033,0.022,0.3,0.001,0.016,22.6,70.2,NNE,0.9
H01,2015,9,28,1,0.001,0.015,0.025,0.3,0.001,0.013,22,71.1,NE,0.8
H01,2015,9,28,2,0.001,0.021,0.025,0.3,0.001,0.012,21.6,73,WNW,0.6
H01,2015,9,28,3,0.001,0.019,0.015,0.3,0.011,0.019,20.2,79.8,CALM,0
H01,2015,9,28,4,0.001,0.025,0.002,0.4,0.028,0.03,20.9,81.5,NNW,0.3
H01,2015,9,28,5,0.001,0.021,0.013,0.3,0.008,0.023,20.3,76.3,CALM,0.2
H01,2015,9,28,6,0.001,0.035,0.001,0.4,0.047,0.032,19.9,83.5,NNE,0.5
H01,2015,9,28,7,0.001,0.029,0.004,0.4,0.037,0.03,21.4,74.9,NE,1.4
H01,2015,9,28,8,0.001,0.022,0.012,0.4,0.023,0.025,23.7,59.6,N,0.8
H01,2015,9,28,9,0.001,0.026,0.012,0.3,0.035,0.025,24.3,52.2,WNW,1.9
H01,2015,9,28,10,0.001,0.033,0.016,0.3,0.035,0.027,25.5,51,N,1.3
H01,2015,9,28,11,0.001,0.027,0.025,0.3,0.025,0.023,26.7,47.7,WNW,1.3
H01,2015,9,28,12,0.001,0.027,0.034,0.2,0.019,0.023,28.2,38.3,WNW,2.1
H01,2015,9,28,13,0.001,0.018,0.041,0.2,0.013,0.019,28.7,35,WNW,2.5
H01,2015,9,28,14,0.001,0.025,0.04,0.2,0.025,0.023,29.1,35.5,W,2.1
H01,2015,9,28,15,0.001,0.037,0.034,0.2,0.02,0.03,29.9,36.1,WSW,2.9
H01,2015,9,28,16,0.007,0.044,0.024,0.4,0.036,0.049,28.8,44.3,WSW,2.9
H01,2015,9,28,17,0.008,0.034,0.021,0.4,0.033,0.059,27.9,48.6,WSW,2
H01,2015,9,28,18,0.004,0.028,0.013,0.5,0.027,0.04,25.9,50.8,W,2.2
H01,2015,9,28,19,0.003,0.03,0.012,0.5,0.025,0.038,25.1,55.6,W,1.3
H01,2015,9,28,20,0.002,0.036,0.03,0.3,0.004,0.016,23.9,54.5,WNW,2.3
H01,2015,9,28,21,0.001,0.022,0.035,0.2,0.001,0.008,23.5,55.6,WNW,2.5
H01,2015,9,28,22,0.001,0.036,0.033,0.2,0.001,0.009,23,57.7,NNW,1.5
H01,2015,9,28,23,0.001,0.033,0.033,0.2,0.001,0.008,22.5,57.2,WNW,1.8
H01,2015,9,28,24,0.001,0.03,0.032,0.2,0.001,0.01,22.4,55,WNW,2
H01,2015,9,29,1,0.002,0.024,0.032,0.2,0.001,0.01,22.4,55.2,WNW,2.9
H01,2015,9,29,2,0.001,0.024,0.035,0.2,0,0.009,22.6,50.6,WNW,2.4
H01,2015,9,29,3,0.001,0.02,0.035,0.2,0.002,0.008,22.1,53.8,WNW,1.9
H01,2015,9,29,4,0.001,0.019,0.033,0.3,0.002,0.013,21.8,58.8,NW,0.8
H01,2015,9,29,5,0.001,0.033,0.025,0.3,0.003,0.017,21.2,59.6,NNE,1.2
H01,2015,9,29,6,0.003,0.024,0.016,0.3,0.007,0.028,21.3,56.6,N,0.7
H01,2015,9,29,7,0.002,0.033,0.01,0.4,0.018,0.033,21.2,58.9,NNE,1.8
H01,2015,9,29,8,0.002,0.041,0.015,0.4,0.026,0.031,23.7,43.8,NNE,1.7
H01,2015,9,29,9,0.002,0.037,0.019,0.4,0.028,0.031,25.1,37.8,NNE,1.6
H01,2015,9,29,10,0.001,0.022,0.021,0.3,0.036,0.031,25.8,28.7,WNW,1.6
H01,2015,9,29,11,0.001,0.03,0.029,0.3,0.027,0.024,27.2,31.1,NNE,2.1
H01,2015,9,29,12,0.001,0.028,0.036,0.2,0.017,0.022,27.8,29.6,WNW,2.2
H01,2015,9,29,13,0.001,0.027,0.043,0.2,0.008,0.014,28.2,34.2,WNW,2.7
H01,2015,9,29,14,0.001,0.023,0.041,0.2,0.014,0.016,28.2,29.5,WNW,3.6
H01,2015,9,29,15,0.001,0.024,0.036,0.2,0.017,0.023,27.9,31,WNW,4.2
H01,2015,9,29,16,0.001,0.024,0.038,0.2,0.011,0.018,26.6,31.6,WNW,4.7
H01,2015,9,29,17,0.001,0.029,0.035,0.2,0.008,0.015,25.4,35.5,WNW,3.8
H01,2015,9,29,18,0.001,0.03,0.036,0.2,0.004,0.012,23.7,39.7,WNW,4
H01,2015,9,29,19,0,0.02,0.035,0.2,0.003,0.01,22.9,42.6,WNW,4.2
H01,2015,9,29,20,0.001,0.025,0.035,0.3,0.002,0.009,22,46.4,WNW,2.2
H01,2015,9,29,21,0.001,0.021,0.035,0.3,0.001,0.009,21.4,48,W,2.5
H01,2015,9,29,22,0,0.027,0.035,0.3,0.001,0.007,20.8,48.6,WNW,2.1
H01,2015,9,29,23,0.001,0.019,0.034,0.2,0.001,0.007,20.3,46.7,WNW,2.1
H01,2015,9,29,24,0,0.022,0.032,0.2,0.001,0.007,19.5,53,NW,1
H01,2015,9,30,1,0.001,0.014,0.028,0.2,0.001,0.011,19.2,55,WNW,1
H01,2015,9,30,2,0.001,0.017,0.029,0.2,0.001,0.011,18.8,54.1,WNW,1.5
H01,2015,9,30,3,0.002,0.031,0.026,0.2,0.002,0.014,18.9,52.2,N,1.2
H01,2015,9,30,4,0.001,0.021,0.028,0.2,0.002,0.013,18.7,51,WNW,2
H01,2015,9,30,5,0.002,0.021,0.022,0.2,0.003,0.018,18.3,51.8,N,1.1
H01,2015,9,30,6,0.002,0.031,0.018,0.2,0.006,0.023,17.9,49.5,NNE,1
H01,2015,9,30,7,0.004,0.03,0.014,0.4,0.019,0.028,18.4,48.9,NNE,2.5
H01,2015,9,30,8,0.003,0.025,0.017,0.4,0.02,0.028,20.9,37.6,NNE,2.2
H01,2015,9,30,9,0.001,0.025,0.021,0.4,0.016,0.024,21.1,35.3,NNE,2.8
H01,2015,9,30,10,0.001,0.036,0.022,0.3,0.019,0.028,22.1,34.6,N,2.3
H01,2015,9,30,11,0.001,0.025,0.025,0.2,0.02,0.023,22.5,32.5,NNE,1.3
H01,2015,9,30,12,0.001,0.026,0.024,0.2,0.039,0.028,23.4,29.9,WNW,1.3
H01,2015,9,30,13,0.001,0.026,0.033,0.1,0.013,0.024,24.4,31.9,NNE,1.4
H01,2015,9,30,14,0.003,0.032,0.036,0.3,0.01,0.025,24.8,34.6,SSE,0.9
H01,2015,9,30,15,0.003,0.026,0.041,0.2,0.005,0.024,24.8,36.6,SSE,2.3
H01,2015,9,30,16,0.004,0.026,0.042,0.3,0.005,0.021,24.2,42.6,S,2.4
H01,2015,9,30,17,0.002,0.036,0.03,0.2,0.011,0.034,23.1,38.2,SSW,1.5
H01,2015,9,30,18,0.003,0.025,0.022,0.2,0.011,0.04,21.2,39.1,SSE,1.1
H01,2015,9,30,19,0.003,0.028,0.017,0.3,0.002,0.039,20.4,46.1,SE,0.9
H01,2015,9,30,20,0.003,0.036,0.007,0.3,0.007,0.051,19.8,47.6,CALM,0.2
H01,2015,9,30,21,0.003,0.05,0.003,0.4,0.01,0.051,19.5,52.3,SE,0.8
H01,2015,9,30,22,0.002,0.037,0.006,0.4,0.005,0.047,19,62.1,NE,0.7
H01,2015,9,30,23,0.001,0.042,0.002,0.5,0.01,0.047,18.4,69.6,ENE,0.5
H01,2015,9,30,24,0.001,0.033,0.013,0.4,0.001,0.029,18.3,70.7,ENE,0.6
H01,2015,10,1,1,0.001,0.042,0.019,0.3,0.001,0.019,18.3,69.5,ENE,0.9
H01,2015,10,1,2,0.001,0.03,0.022,0.3,0,0.012,18.4,66.4,ENE,1.1
H01,2015,10,1,3,0.001,0.036,0.021,0.3,0.001,0.013,18.9,66.3,NNE,0.4
H01,2015,10,1,4,0.002,0.046,0.002,0.5,0.026,0.034,18.6,63.8,NE,0.7
H01,2015,10,1,5,0.002,0.035,0.001,0.4,0.025,0.036,18.6,70.9,WNW,0.6
H01,2015,10,1,6,0.003,0.042,0.001,0.5,0.033,0.036,18.5,70.2,NW,0.6
H01,2015,10,1,7,0.003,0.04,0.001,0.5,0.057,0.032,19,68.2,WNW,1.3
H01,2015,10,1,8,0.003,0.041,0.002,0.5,0.05,0.037,17.5,73.2,WNW,1.2
H01,2015,10,1,9,0.002,0.036,0.006,0.4,0.048,0.03,17,83.8,NW,1
H01,2015,10,1,10,0.002,0.042,0.006,0.4,0.027,0.036,16.7,86.6,NNE,1.7
H01,2015,10,1,11,0.001,0.055,0.003,0.5,0.034,0.039,16.8,88.4,NE,1.2
H01,2015,10,1,12,0.001,0.046,0.007,0.5,0.023,0.033,17.4,85.8,NE,1.2
H01,2015,10,1,13,0.001,0.055,0.004,0.5,0.036,0.04,17.7,88.3,WNW,1.2
H01,2015,10,1,14,0.001,0.04,0.003,0.6,0.048,0.036,17.9,90.3,NE,1.2
H01,2015,10,1,15,0.001,0.06,0.002,0.7,0.102,0.05,19.2,91.5,CALM,0
H01,2015,10,1,16,0.002,0.049,0.002,0.6,0.098,0.05,20.6,92.3,SE,1.2